SCP
0 0 0 0 0 0 0 0 0 0 0 0 0 0 0 0 0 0 0 0 0 0 0 0 0 0 0 0 0 0 0 0 0 0 0 0 0 0 0 0 0 0 0
0 0 0 0 0 0 0 0 0 0 0 0 0 0 0 0 0 0 0 0 0 0 0 0 0 0 0 0 0 0 0 0 0 0 0 0 0 0 0 0 0 0 0
0 0 0 0 0 0 0 0 0 0 0 0 0 0 0 0 0 0 0 0 0 0 0 0 0 0 0 0 0 0 0 0 0 0 0 0 0 0 0 0 0 0 0
-0 0 0 0 0 0 0 0 0 0 0 0 0 0 0 0 0 0 0 0 0 0 0 0 0 0 0 0 0 0 0 0 0 0 0 0 0 0 0 0 0 0 0
-0 0 0 0 0 0 0 0 0 0 0 0 0 0 0 0 0 0 0 0 0 0 0 0 0 0 0 0 0 0 0 0 0 0 0 0 0 0 0 0 0 0 0
-0 0 0 0 0 0 0 0 0 0 0 0 0 0 0 0 0 0 0 0 0 0 0 0 0 0 0 0 0 0 0 0 0 0 0 0 0 0 0 0 0 0 0
0 0 0 0 0 0 0 0 0 0 0 0 0 0 0 0 0 0 0 0 0 0 0 0 0 0 0 0 0 0 0 0 0 0 0 0 0 0 0 0 0 0 0
0 0 0 0 0 0 0 0 0 0 0 0 0 0 0 0 0 0 0 0 0 0 0 0 0 0 0 0 0 0 0 0 0 0 0 0 0 0 0 0 0 0 0
0 0 0 0 0 0 0 0 0 0 0 0 0 0 0 0 0 0 0 0 0 0 0 0 0 0 0 0 0 0 0 0 0 0 0 0 0 0 0 0 0 0 0
0 -0 -0 -0 0 0 0 0 0 0 0 0 0 0 0 0 0 0 0 0 0 0 0 0 0 0 0 0 0 0 0 0 0 0 0 0 0 0 0 0 0 0 0
0 -0 -0 0 0 0 0 0 0 0 0 0 0 0 0 0 0 0 0 0 0 0 0 0 0 0 0 0 0 0 0 0 0 0 0 0 0 0 0 0 0 0 0
0 0 0 0 0 0 0 0 0 0 0 0 0 0 0 0 0 0 0 0 0 0 0 0 0 0 0 0 0 0 0 0 0 0 0 0 0 0 0 0 0 0 0
0 0 0 0 0 0 0 0 0 0 0 0 0 0 0 0 0 0 0 0 0 0 0 0 0 0 0 0 0 0 0 0 0 0 0 0 0 0 0 0 0 0 0
0 0 0 0 0 0 0 0 0 0 0 0 0 0 0 0 0 0 0 0 0 0 0 0 0 0 0 0 0 0 0 0 0 0 0 0 0 0 0 0 0 0 0
0 0 0 0 0 0 0 0 0 0 0 0 0 0 0 0 0 0 0 0 0 0 0 0 0 0 0 0 0 0 0 0 0 0 0 0 0 0 0 0 0 0 0
0 0 0 0 0 0 0 0 0 0 0 0 0 0 0 0 0 0 0 0 0 0 0 0 0 0 0 0 0 0 0 0 0 0 0 0 0 0 0 0 0 0 0
0 0 0 0 0 0 0 0 0 0 0 0 0 0 0 0 0 0 0 0 0 0 0 0 0 0 0 0 0 0 0 0 0 0 0 0 0 0 0 0 0 0 0
0 0 0 0 0 0 0 0 0 0 0 0 0 0 0 0 0 0 0 0 0 0 0 0 0 0 0 0 0 0 0 0 0 0 0 0 0 0 0 0 0 0 0
0 0 0 0 0 0 0 0 0 0 0 0 0 0 0 0 0 0 0 0 0 0 0 0 0 0 0 0 0 0 0 0 0 0 0 0 0 0 0 0 0 0 0
0 0 0 0 0 0 0 0 0 0 0 0 0 0 0 0 0 0 0 0 0 0 0 0 0 0 0 0 0 0 0 0 0 0 0 0 0 0 0 0 0 0 0
0 0 0 0 0 0 0 0 0 0 0 0 0 0 0 0 0 0 0 0 0 0 0 0 0 0 0 0 0 0 0 0 0 0 0 0 0 0 0 0 0 0 0
0 0 0 0 0 0 0 0 0 0 0 0 0 0 0 0 0 0 -0 -0 0 0 0 0 0 0 0 0 0 0 0 0 0 0 0 0 0 0 0 0 0 0 0
0 0 0 0 0 0 0 0 0 0 0 0 0 0 0 0 0 -0 -0 0 0 0 0 0 0 0 0 0 0 0 0 0 0 0 0 0 0 0 0 0 0 0 0
0 0 0 0 0 0 0 0 0 0 0 0 0 0 0 0 0 0 0 0 0 0 0 0 0 0 0 0 0 0 0 0 0 0 0 0 0 0 0 0 0 0 0
0 0 0 0 0 0 0 0 0 0 0 0 0 0 0 0 0 0 0 0 0 0 0 0 0 0 0 0 0 0 0 0 0 0 0 0 0 0 0 0 0 0 0
0 0 0 0 0 0 0 0 0 0 0 0 0 0 0 0 0 0 0 0 0 0 0 0 0 0 0 0 0 0 0 0 0 0 0 0 0 0 0 0 0 0 0
Wind_Speed
2 2 2 2 2 1 1 1 2 2 2 2 2 3 3 2 2 2 2 5 7 9 10 11 11 10 10 11 11 11 11 10 10 10 9 10 10 10 10 10 10 10 11
2 2 2 2 2 2 1 1 2 1 1 2 2 3 2 2 2 2 1 3 5 6 7 9 10 10 11 11 11 11 10 10 10 10 10 10 10 11 11 11 10 11 11
2 2 2 2 2 2 2 1 1 0 1 1 2 2 2 2 1 1 1 1 2 5 6 7 8 9 10 11 11 11 11 11 10 10 10 10 10 11 12 11 11 11 11
3 2 2 2 3 2 2 1 1 1 1 0 1 1 1 1 1 2 2 1 1 2 4 7 7 7 9 10 10 11 11 11 10 10 10 10 10 11 11 11 11 11 11
3 2 2 2 3 2 2 2 1 0 0 1 1 1 1 1 2 2 1 1 1 2 2 4 6 7 7 8 9 11 12 12 11 11 10 10 10 10 11 11 11 11 11
3 3 2 3 3 2 2 2 1 1 0 1 1 1 0 1 1 1 1 0 0 1 2 3 3 4 7 8 9 10 11 12 12 12 12 11 10 10 11 11 12 12 12
3 3 3 3 3 2 2 2 1 1 1 1 2 1 1 1 1 0 1 1 1 1 1 2 2 2 3 6 7 9 11 12 12 12 12 12 11 11 11 11 12 12 12
2 2 3 2 3 2 3 3 2 1 1 1 1 2 2 2 2 1 0 1 1 0 1 2 2 3 2 2 4 8 8 10 11 12 11 12 11 11 11 11 12 12 12
1 2 2 2 2 2 2 2 2 2 1 1 1 2 2 1 1 2 1 1 0 1 0 0 2 2 3 2 2 5 7 8 9 11 12 12 12 11 11 11 12 12 12
1 1 2 2 2 2 2 2 2 1 2 1 1 1 1 2 2 1 2 2 1 1 1 0 0 1 2 2 3 5 7 7 7 9 11 12 12 12 12 12 12 12 12
2 1 1 2 2 2 2 3 2 2 2 1 1 1 2 2 2 2 1 2 2 1 1 1 1 1 1 2 2 3 5 6 6 6 7 10 11 12 12 12 13 13 13
2 2 0 1 1 1 1 2 2 3 2 2 2 2 2 1 1 2 2 1 1 1 1 1 1 1 1 2 2 4 4 5 5 5 5 5 7 10 11 12 13 14 14
2 2 1 0 0 0 1 2 2 2 2 2 2 1 1 1 1 2 2 1 1 1 2 2 1 1 1 1 1 2 3 3 4 4 4 5 5 7 8 10 12 12 13
3 3 2 1 1 0 1 2 2 2 2 2 2 2 2 1 1 1 2 2 2 2 2 2 2 1 1 1 1 2 1 3 4 4 4 5 5 6 7 8 9 10 11
3 3 2 1 1 1 1 2 2 2 2 2 2 2 2 1 2 2 2 2 3 2 1 2 1 2 1 1 1 1 0 3 4 4 4 5 5 6 7 7 8 8 8
2 2 2 2 1 1 1 2 1 1 2 2 1 2 2 1 2 2 2 2 2 3 2 1 1 1 1 1 2 1 0 2 3 4 4 5 5 6 6 7 7 8 8
3 3 3 3 2 2 1 1 1 1 2 2 2 2 1 1 2 2 2 2 2 2 2 1 1 1 1 1 2 2 1 0 1 4 4 5 5 5 6 7 7 8 8
4 4 3 3 3 3 2 2 2 1 1 1 1 1 1 1 2 2 2 2 2 2 3 1 1 1 1 1 1 1 2 1 1 3 3 4 4 5 6 6 7 8 8
3 3 3 4 4 4 3 3 3 2 1 1 2 2 2 2 2 1 2 2 1 2 2 2 0 1 1 1 2 2 2 2 2 2 2 2 3 5 6 6 7 8 9
4 4 4 4 4 4 4 4 3 2 1 1 2 2 3 3 3 2 2 2 2 2 2 2 1 1 1 2 2 2 2 2 2 3 3 3 3 4 5 6 7 8 9
5 5 4 4 4 4 4 5 4 4 2 1 1 2 3 4 5 4 3 3 3 2 2 2 1 1 1 1 1 1 1 2 2 2 2 2 2 2 3 5 6 8 8
4 4 4 4 4 4 6 9 7 4 3 2 2 1 2 3 4 5 5 5 5 4 3 2 1 1 1 1 1 0 0 1 2 2 2 3 1 2 3 3 6 7 7
5 5 5 4 4 5 7 8 9 5 4 3 3 2 2 2 3 2 2 3 2 3 5 4 3 3 3 3 2 1 1 1 2 3 1 3 2 2 3 4 6 6 5
5 5 5 5 5 5 8 8 8 4 3 3 3 4 3 3 3 4 3 2 1 2 3 3 4 4 3 3 3 3 2 1 3 2 1 2 2 2 3 3 5 5 4
5 5 4 5 5 5 8 8 7 3 2 3 3 3 4 4 6 6 4 3 1 2 2 3 4 3 3 3 3 2 1 1 2 2 1 1 2 3 3 3 3 5 6
6 5 4 4 5 5 6 8 8 4 3 2 1 2 3 4 5 7 5 5 3 2 0 1 1 2 2 2 1 3 3 2 1 2 2 0 1 2 3 3 2 3 4
Wind_Direction
351 347 331 326 311 298 272 274 272 256 240 222 211 208 215 213 226 226 243 231 219 207 201 198 195 193 191 187 183 183 181 177 173 173 172 171 168 162 158 156 152 149 144
9 7 357 346 337 316 292 263 261 256 248 226 222 214 206 205 217 224 241 229 222 213 206 201 199 196 193 189 186 183 180 179 175 175 174 172 169 167 162 161 160 158 154
29 22 7 351 334 326 330 335 318 323 297 251 235 225 208 191 197 211 228 225 215 216 211 207 204 199 194 191 190 187 183 178 174 175 175 172 172 170 166 166 166 162 161
31 24 7 343 336 350 355 345 340 358 328 291 247 234 213 184 210 208 209 218 198 204 213 209 206 202 199 196 193 191 184 177 175 177 175 173 172 171 169 170 168 167 166
23 26 6 341 350 6 357 334 15 30 330 316 257 213 200 172 206 207 199 213 199 202 207 208 204 204 202 201 199 195 188 180 179 181 177 173 172 173 174 173 171 172 172
23 25 10 356 1 14 1 355 355 16 354 291 304 53 257 163 179 181 193 180 208 218 203 203 196 204 205 205 206 199 192 186 183 183 181 178 177 178 180 178 176 177 177
28 33 16 5 10 18 1 357 16 32 12 24 65 35 15 60 106 146 184 156 205 222 206 196 192 190 200 209 205 199 195 191 187 186 185 185 183 182 184 184 184 183 182
19 39 35 18 11 19 17 18 36 50 13 35 100 93 39 11 356 9 195 161 184 167 203 208 192 194 189 182 200 200 198 194 191 190 190 191 188 188 188 188 188 188 187
13 32 39 38 21 33 16 7 34 71 46 4 63 121 130 180 323 349 356 22 121 108 142 191 192 191 187 180 186 202 200 196 196 199 196 194 192 193 193 194 195 194 195
311 8 40 44 29 26 15 360 41 62 85 42 9 37 117 156 133 55 350 355 47 103 133 152 137 166 171 166 176 187 195 194 198 203 202 199 198 199 199 201 203 203 203
291 306 28 41 31 22 21 21 26 47 72 84 56 38 50 50 70 122 88 352 10 5 40 96 101 120 147 148 157 167 182 190 198 204 205 204 205 206 207 208 209 210 211
288 293 344 52 34 27 24 22 31 47 54 71 66 64 82 83 72 101 119 77 25 341 7 43 68 110 142 132 150 157 167 182 194 203 208 209 214 216 216 216 217 218 218
245 259 243 201 292 0 40 45 47 40 53 71 71 68 70 73 126 128 116 108 62 359 19 25 15 48 106 103 128 163 177 184 193 203 212 216 222 224 225 226 226 227 226
218 228 219 205 217 71 61 61 54 42 57 56 59 67 70 47 61 91 127 130 88 29 30 15 1 13 50 88 112 133 182 207 206 211 223 232 236 238 236 236 236 236 237
214 208 206 199 203 144 99 83 60 41 55 53 51 60 66 45 50 58 84 125 137 117 37 339 355 351 7 44 71 95 139 231 224 229 236 240 242 242 243 242 244 244 246
206 190 196 195 188 171 125 97 73 48 66 47 56 64 55 45 48 53 68 75 109 135 132 316 314 324 0 50 50 53 263 241 244 250 249 249 248 248 250 250 250 251 250
198 191 195 186 185 185 173 136 124 88 74 46 49 77 54 60 61 49 61 67 71 105 121 346 354 360 30 43 20 11 3 354 285 270 263 254 254 256 256 256 256 255 254
201 197 192 186 191 186 181 171 179 149 128 108 95 108 75 84 68 56 67 69 71 94 126 114 356 1 16 354 19 13 1 1 317 289 277 265 263 265 264 265 264 262 259
202 201 186 190 192 187 187 189 179 172 180 191 175 159 166 127 92 72 76 78 73 77 97 120 32 350 357 4 32 17 7 354 334 337 329 309 295 289 280 275 273 270 267
199 200 195 197 193 188 185 184 175 172 184 211 200 184 177 163 163 149 119 119 110 91 86 95 73 0 356 350 47 27 357 348 336 350 358 354 341 322 303 290 282 276 272
204 199 194 198 195 186 188 181 178 174 174 188 212 208 205 195 185 174 154 150 132 117 103 97 80 23 2 13 10 333 343 328 326 346 343 327 323 318 309 302 292 284 280
206 198 197 197 201 207 195 186 177 172 175 178 202 233 235 210 202 191 174 163 155 148 154 150 161 184 245 241 227 183 65 19 321 315 350 306 307 294 289 281 285 292 290
202 201 203 196 204 217 206 195 189 175 182 192 202 212 223 209 196 183 186 174 184 184 174 167 177 208 216 215 184 189 200 206 243 271 348 298 303 287 285 295 307 312 315
197 202 205 202 206 223 215 207 199 183 195 210 209 204 210 223 205 186 177 179 229 246 213 188 194 214 218 213 191 190 200 238 278 282 198 263 298 291 300 305 320 342 345
198 202 200 201 207 228 221 212 190 169 196 227 232 214 200 208 219 192 167 174 208 294 265 217 210 227 242 227 178 136 127 85 318 306 304 229 293 305 305 307 322 347 344
198 198 204 204 203 218 219 208 185 166 185 212 242 239 209 197 204 185 170 170 185 229 240 58 30 349 341 337 190 171 171 165 211 283 290 294 296 338 322 304 308 326 334